YGTE

Details ICAO YGTE (GTE)
Name Groote Eylandt
Region Australia
Timezone Australia/Darwin (UTC+9.5)
Plans Departing 2
Arriving 2
Stats Elevation 52 ft / 16 m (AMSL)
Location -13.972411° 136.458781°
Runways 1
Magnetic Variation 3.979° E
Sunrise 2018-05-20 21:09:22 UTC / 2018-05-21 06:39:22 Local
Sunset 2018-05-21 08:34:56 UTC / 2018-05-21 18:04:56 Local
Advertisement - Login to hide

Runways

ID Width Length Bearing (true) Bearing (mag) Surface Threshold Offset Overrun Length
10 98 ft / 30 m 6,241 ft / 1,902 m 99.20° 95.22° Asphalt 0 ft / 0 m 0 ft / 0 m
28 98 ft / 30 m 6,241 ft / 1,902 m 279.20° 275.22° Asphalt 0 ft / 0 m 0 ft / 0 m

Map

Weather


0- 5 10 15 20 25 30 35+ Temperature / ° C

Clouds and Precipitation
Forecast for 2018-05-20 18:00 UTC. Updated 3 hours ago

Ground ~20,000 ft ~40,000 ft Winds

METAR

YGTE 202000Z AUTO 14007KT 110V170 9999 // NCD 26/20 Q1011

TAF

Not found

Frequencies

Unicom 125.10 MHz ACTIVATE LIGHTS ONLY MULT
Unicom 126.00 MHz GROOTE EYLANDT MULT
Unicom 122.20 MHz BRISBANE CENTRE MULT
Warning: Do not use this data for real-world aviation or navigation. No guarantee of current accuracy is given.